DECAYED

FENGYUN 1C DEB, 29808 (Decayed)

Orbit data source: Space-Track

FENGYUN 1C DEB, 29808 was space debris in SSO originally from a launch on Mon, 10 May 1999 UTC launched from the Taiyaun Space Center, China (TSC). Fengyun 1C debris stems from the Chinese weather satellite Fengyun-1C, which was intentionally destroyed by a Chinese anti-satellite missile in 2007. This event dramatically increased the amount of space debris, with thousands of trackable fragments posing hazards to satellites and human spaceflight. The Fengyun 1C debris cloud has become a focal point in discussions about space sustainability and the need for international regulations to prevent the creation of new debris.

Not visible in the next 10 days
Identifier
29808, 1999-025DA
Orbit
Decayed
Country
Flag of CNCN / PRC
Related business
Manufacturer
Unknown
Mission
Decayed spacecraft
Bus & Motor
Unknown
Mass
Unknown
Launch date (UTC)
1999-05-10 (27 years ago)
Launch vehicle
Unknown
Launch site
Taiyaun Space Center, China (TSC)
Object type
Payload
Rocket body
Debris
Shape & HBR
Unknown shape, 0.1 m
Radar Cross Section
Medium (>0.1 m² and <1 m²)

Expand to show TLE details & history
Last TLE update: 6 months ago

TLE from 6 months ago
0 FENGYUN 1C DEB
1 29808U 99025DA  26013.29920248  .06777764  66266-1  24192-1 0  9990
2 29808  98.9870 303.9104 0018915 140.8439  18.9598 15.93083635987112
Epoch: 2026-01-13T07:10Z
TLE epoch observation values (Epoch: 2026-01-13T07:10:51.094Z)
Latitude
19.87197°
Longitude
-93.32766°
Altitude
284.41 km
Speed
7.746 km/s
True Right ascension
08h 28m 40s
True Declination
19° 45' 16"
Sunlit
Object was in full shadow at epoch
Visualization orbit readout
Latitude
Unknown
Longitude
Unknown
Altitude
Unknown
Speed
Unknown
Apparent Right ascension
Unknown
Apparent Declination
Unknown
Sunlit
N/A
Visualization observer readout
Local Sidereal Time
11:56:00
Azimuth
Unknown
Elevation
Unknown
Doppler factor
Unknown
Orbital elements
Apogee altitude
303.22 km
Perigee altitude
277.992 km
Semi-major axis
6,668.743 km
Eccentricity
0.00189
Inclination
98.987°
RAAN
303.9104°
Arg. of periapsis
140.8439°
True anomaly
19.03038°
Mean anomaly
18.9598°
Eccentric anomaly
18.99507°
Mean motion
3.98545 °/min
Orbital period
90.33 mins
BSTAR
0.024192
Loading maneuver chart data...
Computing Atmospheric mass density...
Loading historical data...
Loading historical data...
Loading historical data...
Loading historical data...
Loading historical data...
Loading historical data...
Loading historical data...

Documentation

Showing up to 5 results
|